Weather History for Meridian, MS

Change the Weather History Date:

Friday, August 9, 2013

  Actual Average Record
Temperature  
Mean Temperature 83 °F 81 °F  
Max Temperature 92 °F 92 °F 103 °F (1935)
Min Temperature 74 °F 70 °F 56 °F (1976)
Degree Days  
Heating Degree Days 0 0  
Month to date heating degree days 0 0  
Since 1 June heating degree days 0 0  
Since 1 July heating degree days 0 0  
Cooling Degree Days 18 16  
Month to date cooling degree days 158 144  
Year to date cooling degree days 1282 1291  
Since 1 June cooling degree days 1022 1008  
Growing Degree Days 32 (Base 50)    
Moisture  
Dew Point 74 °F    
Average Humidity 75    
Maximum Humidity 94    
Minimum Humidity 56    
Precipitation  
Precipitation T in 0.14 in 3.97 in (1897)
Month to date precipitation 0.83 1.32  
Year to date precipitation 46.66 36.29  
Sea Level Pressure  
Sea Level Pressure 30.00 in    
Wind  
Wind Speed 3 mph (SSE)    
Max Wind Speed 17 mph    
Max Gust Speed 22 mph    
Visibility 9 miles    
Events Rain    
T = Trace of Precipitation, MM = Missing Value Source: NWS Daily Summary

Daily Weather History Graph

Daily Weather History Graph

Search for Another Location

Airport:

Trip Planner

Search our weather history database for the weather conditions in past years. The results will help you decide how hot, cold, wet, or windy it might be!

Date:

Astronomy

Aug. 09, 2013 Rise Set
Actual Time 6:15 AM CDT 7:45 PM CDT
Civil Twilight 5:49 AM CDT 8:11 PM CDT
Nautical Twilight 5:17 AM CDT 8:42 PM CDT
Astronomical Twilight 4:44 AM CDT 9:15 PM CDT
Moon 8:48 AM CDT (8/9) 9:09 PM CDT (8/9)
Length of Visible Light 14h 22m
Length of Day
13h 29m
Waxing Crescent, 8% of the Moon is Illuminated
Aug 9
Waxing Crescent
Aug 14
First Quarter
Aug 20
Full
Aug 28
Last Quarter
Sep 5
New

Hourly Weather History & Observations

Time (CDT) Temp. Heat Index Dew Point Humidity Pressure Visibility Wind Dir Wind Speed Gust Speed Precip Events Conditions
12:58 AM 78.1 °F - 75.0 °F 90% 29.98 in 9.0 mi Calm Calm - N/A   Clear
1:58 AM 77.0 °F - 75.0 °F 94% 29.98 in 9.0 mi Calm Calm - N/A   Clear
2:58 AM 75.9 °F - 73.9 °F 94% 29.97 in 7.0 mi SSE 3.5 mph - N/A   Clear
3:58 AM 75.0 °F - 73.9 °F 96% 29.96 in 6.0 mi Calm Calm - N/A   Clear
4:58 AM 75.0 °F - 73.0 °F 94% 29.97 in 6.0 mi Calm Calm - N/A   Clear
5:44 AM 75.2 °F - 73.4 °F 94% 30.00 in 6.0 mi Calm Calm - N/A   Mostly Cloudy
5:58 AM 75.0 °F - 73.9 °F 96% 29.99 in 6.0 mi Calm Calm - N/A   Mostly Cloudy
6:58 AM 75.9 °F - 73.9 °F 94% 29.99 in 6.0 mi South 3.5 mph - N/A   Clear
7:58 AM 78.1 °F - 75.0 °F 90% 30.01 in 7.0 mi South 4.6 mph - N/A   Clear
8:58 AM 82.0 °F 89.4 °F 75.9 °F 82% 30.01 in 10.0 mi SSW 3.5 mph - N/A   Clear
9:23 AM 82.4 °F 89.5 °F 75.2 °F 79% 30.04 in 10.0 mi SSW 3.5 mph - N/A   Mostly Cloudy
9:34 AM 82.4 °F 89.5 °F 75.2 °F 79% 30.04 in 10.0 mi Calm Calm - N/A   Scattered Clouds
9:58 AM 82.9 °F 90.2 °F 75.0 °F 77% 30.03 in 10.0 mi South 3.5 mph - N/A   Mostly Cloudy
10:58 AM 86.0 °F 95.1 °F 75.0 °F 70% 30.03 in 10.0 mi South 5.8 mph - N/A   Scattered Clouds
11:58 AM 89.1 °F 97.0 °F 73.0 °F 59% 30.01 in 10.0 mi Variable 3.5 mph - 0.00 in   Partly Cloudy
12:58 PM 89.1 °F 97.0 °F 73.0 °F 59% 30.00 in 10.0 mi ESE 4.6 mph - N/A   Mostly Cloudy
1:58 PM 91.9 °F 100.7 °F 73.0 °F 54% 29.99 in 10.0 mi South 5.8 mph - N/A   Partly Cloudy
2:58 PM 91.0 °F 100.4 °F 73.9 °F 57% 29.96 in 10.0 mi SSE 6.9 mph - N/A   Clear
3:58 PM 86.0 °F 92.2 °F 72.0 °F 63% 29.98 in 10.0 mi ESE 10.4 mph - 0.00 in   Mostly Cloudy
4:58 PM 87.1 °F 96.3 °F 75.0 °F 67% 29.97 in 10.0 mi SSE 10.4 mph - N/A   Clear
5:58 PM 82.9 °F 88.0 °F 72.0 °F 69% 29.97 in 10.0 mi SSE 6.9 mph - N/A   Clear
6:58 PM 82.0 °F 87.4 °F 73.0 °F 74% 30.01 in 10.0 mi Calm Calm - N/A   Clear
7:58 PM 81.0 °F 86.2 °F 73.9 °F 79% 30.03 in 10.0 mi Calm Calm - N/A   Partly Cloudy
8:58 PM 79.0 °F - 75.0 °F 88% 30.03 in 10.0 mi SE 4.6 mph - N/A   Partly Cloudy
9:58 PM 79.0 °F - 75.0 °F 88% 30.06 in 10.0 mi SE 4.6 mph - 0.00 in Rain Light Rain
10:58 PM 78.1 °F - 75.0 °F 90% 30.05 in 10.0 mi Calm Calm - 0.00 in   Clear
11:58 PM 77.0 °F - 75.0 °F 94% 30.04 in 10.0 mi Calm Calm - N/A   Clear